{"data":{"norad_id":87764,"epoch":"2026-05-21T19:46:44.751648Z","epoch_age_seconds":348737,"freshness":"STALE","line1":"1 87764U          26141.82412907  .00010657  00000+0  16568-2 0  9995","line2":"2 87764  65.6714  80.7496 0362061 353.5321  34.5303 14.37755866642111","mean_motion":14.37755866,"eccentricity":0.0362061,"inclination_deg":65.6714,"raan_deg":80.7496,"arg_perigee_deg":353.5321,"mean_anomaly_deg":34.5303,"bstar":0.0016568,"rev_number":64211,"period_min":100.15608588725,"perigee_km":507.26417199613,"apogee_km":1024.5812526986,"semimajor_km":7144.0597123473,"source":"CELESTRAK","updated_at":"2026-05-25T13:38:11.678604Z"}}